星链-34805 (STARLINK-34805)

导读 | 豆包AI

STARLINK-34805是美国于2025年7月31日发射的星链系列卫星,隶属于太空探索技术公司SpaceX的星链星座项目。星链星座旨在构建全球卫星互联网,该卫星将为全球偏远地区、海洋空域等提供低延迟、高速率的宽带互联服务,补充星链网络的覆盖范围与通信容量,推进全球互联网普及进程。

基本信息
目录编号:
65071
目录名称:
STARLINK-34805
国际标识:
2025-165R
轨道中心:
EARTH
卫星名称:
星链-34805
卫星全名:
星链-34805 (STARLINK-34805)
卫星状态:
在轨 (已飞行272 天)
发射日期:
2025-07-31 UTC
国别 :
美国 (US)
星等 :
--
轨道信息
数据来源 国际轨道数据
星历时间: 2026-04-29T12:05:49+0800
6小时前
查看轨道信息
半长轴: 6927.617km
偏心率: 0.0001377
轨道倾角: 97.556°
近地点辐角 193.556°
升交点赤经 196.918°
平近点角 166.563°
近地点: 548.526km
远地点: 550.434km
周期: 95.639分钟
每日圈数: 15.056604
详细信息
固有亮度:
5
最大亮度:
2.5
卫星平台:
Starlink V1.0
覆盖范围:
全球
运营商:
太空探索技术公司
运营商所在国:
美国
制造商(研发单位):
太空探索技术公司
制造商所在国:
美国
使用方式:
暂无
卫星简介
Starlink 计划是 SpaceX 推出的全球卫星互联网项目,通过发射低轨道卫星,为全球尤其是偏远地区提供高速、低延迟的互联网服务。自 2019 年起,Starlink 已部署数千颗卫星,旨在缩小全球数字鸿沟,推动互联网普及。该项目还为军事、航空等行业提供通信支持,带来广泛经济效益。
2D轨道图
3D轨道图
轨道高度分析图
轨道倾角分析图
轨道综合分析图
查看轨道综合分析图